STARLINK-1167, 45071

Orbit data source: Space-Track

STARLINK-1167, 45071 is a payload satellite owned by SpaceX/Seattle (US) in LEO that was launched on Wed, 29 Jan 2020 UTC via an FALCON 9 launch vehicle from the Air Force Eastern Test Range (AFETR). Payload-class satellites include a variety of spacecraft equipped with specific instruments for various scientific and technological missions. These include communications satellites like Starlink; space stations such as the ISS; scientific satellites like the Hubble; Earth observation satellites from companies like Planet Labs, Umbra, and HawkEye 360; GPS; miniature CubeSats for education and research; and military/defense satellites.

Loading next visibility...
Identifier
45071, 2020-006AD
Orbit
LEO
Country
Flag of USUS
Related business
Manufacturer
SpaceX/Seattle
Mission
Operational Commercial Communications
Bus & Motor
STARLINK, Unknown motor
Mass
260 kg wet, ~248 kg dry
Launch date (UTC)
2020-01-29 (6 years ago)
Launch vehicle
FALCON 9
Launch site
Air Force Eastern Test Range (AFETR)
Object type
Payload
Rocket body
Debris
Shape & HBR
Box + 1 Pan, 4.4 m
Radar Cross Section
13.562 m², Large (>1 m²)

Expand to show TLE details & history
Last TLE update: 10 hours ago

TLE from 10 hours ago
0 STARLINK-1167
1 45071U 20006AD  25258.23579891  .00003457  00000-0  25079-3 0  9996
2 45071  53.0562 334.2648 0001453 103.0998 257.0153 15.06410354310290
Epoch: 2025-09-15T05:39Z
TLE epoch observation values (Epoch: 2025-09-15T05:39:33.025Z)
Latitude
-0.00006°
Longitude
-105.0662°
Altitude
548.285 km
Speed
7.589 km/s
True Right ascension
22h 17m 03s
True Declination
0° 00' 00"
Sunlit
Object was in full shadow at epoch
Visualization orbit readout
Latitude
Unknown
Longitude
Unknown
Altitude
Unknown
Speed
Unknown
Apparent Right ascension
Unknown
Apparent Declination
Unknown
Sunlit
N/A
Visualization observer readout
Local Sidereal Time
08:40:09
Azimuth
Unknown
Elevation
Unknown
Doppler factor
Unknown
Orbital elements
Apogee altitude
548.457 km
Perigee altitude
546.444 km
Semi-major axis
6,925.587 km
Eccentricity
0.00015
Inclination
53.0562°
RAAN
334.2648°
Arg. of periapsis
103.0998°
True anomaly
256.99908°
Mean anomaly
257.0153°
Eccentric anomaly
257.00719°
Mean motion
3.76581 °/min
Orbital period
95.6 mins
BSTAR
0.00025079
Loading maneuver chart data...
Computing Atmospheric mass density...

Documentation

Showing up to 5 results
|